Location: Observatoire
(46.1952°N, 5.3391°E)
Time: 22:05:20
(UTC+01:00)

Tiros 1 despin weight - Pass Details

Date: 20 February 2026
Orbit: 556 x 593 km, 48.2° (Epoch: 7 March)

Event Time Altitude Azimuth Distance (km) Brightness Sun altitude
Rises 18:11:52 0° 282° (WNW) 2,736 ? -0.9°
Reaches altitude 10° 18:14:08 10° 284° (WNW) 1,838 ? -1.2°
Maximum altitude 18:18:20 72° 9° (N) 586 ? -1.9°
Drops below altitude 10° 18:22:31 10° 95° (E) 1,837 ? -2.6°
Enters shadow 18:24:15 - 97° (E) 2,528 ? -2.9°
Sets 18:24:46 0° 97° (E) 2,734 - -3.0°
